COSMOS 2058 (20465 NORAD) Tracking and Keplerian Element Data

This shows tracking and keplerian element data for the satellite.

Feedback or suggestion? Click here.




ElementValue
Catalog20465
NameCOSMOS 2058
Epoch Orbit90315
Epoch Day34.62790745
Epoch Year2025
RAAN79.0047
Inclination82.4836
Eccentricity0.0011308
Argument of Perigee225.1432
Mean Anonmoly134.8878
Mean Motion15.07262102
Decay Rate5.617E-05
L11 20465U 90010A 25034.62790745 .00005617 00000+0 37028-3 0 9992
L22 20465 82.4836 79.0047 0011308 225.1432 134.8878 15.07262102903152



Live tracking and technical data element details for COSMOS 2058 (NORAD 20465). COSMOS 2058 can be tracked NOW for your location showing map with azimuth and elevation plus other details from your city location.







IsCatalogInMostPopularTable: catalog: 20465, numindb: 540
Update: records affected: 1



GetName: 20465 COSMOS 2058

Hit Count: updated at: Thu, 15 May 2025 10:40:32 GMT